Starlink 31159

operational
NORAD ID: 58740 Int'l Des: 2024-005 Owner: SPXS Country: US Constellation: starlink
LEOCIRCULAR

About Starlink 31159

Description loading...

Live Position

Loading 3D Globe...

Upcoming Passes

Altitude History

Altitude vs Time

uPlot chart will show altitude changes over time

Two-Line Element Set

1 58740U 24005N 25303.81509095 .00000418 00000-0 45980-4 0 9998
2 58740 43.0036 207.4442 0001009 266.3074 93.7653 15.02536421100972
Epoch: Oct 30, 2025 • Age: 16 hours

Current Status

Altitude 562.8 km
Velocity 7.59 km/s
Sub-Earth Point 42.42°N, 87.28°E
Launch Date Jan 7, 2024
Age 1.8 years
Type internet

Technical Details

Classification Payload
Mass 730.00 kg
Dry Mass 700.00 kg
Total Mass 730.00 kg
Length 0.30 m
Diameter 4.10 m
Span 29.00 m
Shape Box + pan
Manufacturer SPXS
Bus Type Starlink V2M
Phase Status In Orbit
Owner/State SPXS/US

Large Constellations

Loading constellations...